{"data":{"norad_id":58919,"epoch":"2026-05-24T19:53:57.441120Z","epoch_age_seconds":90004,"freshness":"FRESH","line1":"1 58919U 24024C   26144.82913705  .00144092  00000+0  93072-3 0  9999","line2":"2 58919  97.3150 233.3971 0004954 225.4530 134.6331 15.75668073129214","mean_motion":15.75668073,"eccentricity":0.0004954,"inclination_deg":97.315,"raan_deg":233.3971,"arg_perigee_deg":225.453,"mean_anomaly_deg":134.6331,"bstar":0.00093072,"rev_number":12921,"period_min":91.389806309796,"perigee_km":339.40125592446,"apogee_km":346.06029171476,"semimajor_km":6720.8677738196,"source":"CELESTRAK","updated_at":"2026-05-25T13:38:01.078790Z"}}